Date String (YYYY-MM-DD hh:mm:ss) UTC,Instrument flags,absolute air pressure of the measurement (hPa),sample flow rate (lpm),inlet stack bypass flow (lpm),air temperature of the measurement (°C),ambient temperature measured by the external sensor (°C),aerosol sample conditioner tube jacket temperature (°C),OPC LED temperature (°C),internal box temperature (°C),relative humidity of the measurement (%),span deviation,mass concentration of particles derived from Lorenz-Mie calculation of OPC scattering (μg/m³),mass concentration of particles derived from Lorenz-Mie calculation of OPC scattering (μg/m³),mass concentration of particles derived from Lorenz-Mie calculation of OPC scattering (μg/m³)
DateTimeUTC,F1_M11,P_M11,Q1_M11,Q2_M11,T1_M11,T2_M11,T3_M11,T4_M11,T5_M11,U1_M11,ZSPAN_M11,X0_M11,X2_M11,X1_M11
2024-04-04 14:00:00,SystemResetWarning,0827.2,5.00,000.00,021.5,020.9,000.0,030.0,023.4,016.5,0000.0,0006.86,0002.13,0001.56
2024-04-04 14:01:00,SystemResetWarning,0827.1,5.00,000.00,021.6,020.9,000.0,030.0,023.4,016.2,0000.0,0006.95,0002.10,0001.55
2024-04-04 14:02:00,SystemResetWarning,0827.2,5.00,000.00,021.6,020.9,000.0,030.0,023.4,015.9,0000.0,0007.59,0002.11,0001.56
2024-04-04 14:03:00,SystemResetWarning,0827.1,5.00,000.00,021.6,020.9,000.0,030.0,023.4,015.6,0000.0,0008.47,0002.12,0001.56
2024-04-04 14:04:00,SystemResetWarning,0827.1,5.00,000.00,021.6,021.0,000.0,030.0,023.4,015.3,0000.0,0008.49,0002.09,0001.53
2024-04-04 14:05:00,SystemResetWarning,0827.1,5.00,000.00,021.6,021.0,000.0,030.0,023.4,015.7,0000.0,0008.34,0002.11,0001.53
2024-04-04 14:06:00,SystemResetWarning,0827.2,5.00,000.00,021.6,021.0,000.0,030.0,023.4,016.1,0000.0,0008.40,0002.12,0001.54
2024-04-04 14:07:00,SystemResetWarning,0827.1,5.00,000.00,021.6,021.0,000.0,030.0,023.4,016.2,0000.0,0007.97,0002.10,0001.53
2024-04-04 14:08:00,SystemResetWarning,0827.2,5.00,000.00,021.6,021.0,000.0,030.1,023.4,016.4,0000.0,0007.98,0002.16,0001.55
2024-04-04 14:09:00,SystemResetWarning,0827.1,5.00,000.00,021.6,021.0,000.0,030.1,023.4,017.0,0000.0,0008.03,0002.21,0001.56
2024-04-04 14:10:00,SystemResetWarning,0827.1,5.00,000.00,021.6,021.0,000.0,030.1,023.4,016.6,0000.0,0007.86,0002.22,0001.57
2024-04-04 14:11:00,SystemResetWarning,0827.1,5.00,000.00,021.6,021.0,000.0,030.1,023.4,017.3,0000.0,0007.55,0002.25,0001.58
2024-04-04 14:12:00,SystemResetWarning,0827.1,5.00,000.00,021.6,021.0,000.0,030.1,023.5,018.7,0000.0,0007.29,0002.25,0001.60
2024-04-04 14:13:00,SystemResetWarning,0827.1,5.00,000.00,021.6,021.1,000.0,030.1,023.5,019.7,0000.0,0006.67,0002.21,0001.60
2024-04-04 14:14:00,SystemResetWarning,0827.1,5.00,000.00,021.6,021.1,000.0,030.1,023.5,018.3,0000.0,0004.95,0002.19,0001.60
2024-04-04 14:15:00,SystemResetWarning,0827.0,5.00,000.00,021.7,021.1,000.0,030.1,023.5,018.1,0000.0,0005.24,0002.27,0001.61
2024-04-04 14:16:00,SystemResetWarning,0827.1,5.00,000.00,021.7,021.1,000.0,030.1,023.5,020.4,0000.0,0005.18,0002.27,0001.60
2024-04-04 14:17:00,SystemResetWarning,0827.1,5.00,000.00,021.7,021.1,000.0,030.1,023.5,020.2,0000.0,0004.84,0002.27,0001.59
2024-04-04 14:18:00,SystemResetWarning,0827.1,5.00,000.00,021.7,021.1,000.0,030.1,023.6,020.1,0000.0,0004.34,0002.32,0001.60
2024-04-04 14:19:00,SystemResetWarning,0827.2,5.00,000.00,021.7,021.1,000.0,030.1,023.5,020.1,0000.0,0004.40,0002.30,0001.59
2024-04-04 14:20:00,SystemResetWarning,0827.2,5.00,000.00,021.7,021.1,000.0,030.1,023.6,020.0,0000.0,0004.44,0002.30,0001.59
2024-04-04 14:21:00,SystemResetWarning,0827.2,5.00,000.00,021.7,021.2,000.0,030.1,023.6,019.1,0000.0,0004.67,0002.30,0001.59
2024-04-04 14:22:00,SystemResetWarning,0827.2,5.00,000.00,021.7,021.2,000.0,030.2,023.6,019.2,0000.0,0005.28,0002.32,0001.59
2024-04-04 14:23:00,SystemResetWarning,0827.1,5.00,000.00,021.8,021.2,000.0,030.2,023.6,018.9,0000.0,0007.22,0002.36,0001.60
2024-04-04 14:24:00,SystemResetWarning,0827.2,5.00,000.00,021.8,021.2,000.0,030.2,023.6,018.4,0000.0,0008.09,0002.44,0001.60
2024-04-04 14:25:00,SystemResetWarning,0827.1,5.00,000.00,021.8,021.2,000.0,030.2,023.6,018.3,0000.0,0008.18,0002.46,0001.60
2024-04-04 14:26:00,SystemResetWarning,0827.1,5.00,000.00,021.8,021.2,000.0,030.2,023.7,018.3,0000.0,0007.93,0002.43,0001.62
2024-04-04 14:27:00,SystemResetWarning,0827.1,5.00,000.00,021.8,021.2,000.0,030.2,023.7,018.9,0000.0,0007.86,0002.47,0001.64
2024-04-04 14:28:00,SystemResetWarning,0827.1,5.00,000.00,021.8,021.3,000.0,030.2,023.7,018.3,0000.0,0007.89,0002.53,0001.66
2024-04-04 14:29:00,SystemResetWarning,0827.1,5.00,000.00,021.8,021.3,000.0,030.2,023.7,018.2,0000.0,0007.92,0002.54,0001.67
2024-04-04 14:30:00,SystemResetWarning,0827.1,5.00,000.00,021.9,021.3,000.0,030.2,023.7,018.0,0000.0,0007.87,0002.51,0001.67
2024-04-04 14:31:00,SystemResetWarning,0827.1,5.00,000.00,021.9,021.3,000.0,030.3,023.7,017.8,0000.0,0007.87,0002.51,0001.67
2024-04-04 14:32:00,SystemResetWarning,0827.1,5.00,000.00,021.9,021.3,000.0,030.3,023.7,018.0,0000.0,0007.86,0002.50,0001.67
2024-04-04 14:33:00,SystemResetWarning,0827.1,5.00,000.00,021.9,021.3,000.0,030.3,023.7,018.2,0000.0,0008.56,0002.54,0001.67
2024-04-04 14:34:00,SystemResetWarning,0827.1,5.00,000.00,021.9,021.3,000.0,030.3,023.8,017.8,0000.0,0007.63,0002.55,0001.66
2024-04-04 14:35:00,SystemResetWarning,0827.2,5.00,000.00,021.9,021.3,000.0,030.3,023.8,017.8,0000.0,0007.20,0002.51,0001.66
2024-04-04 14:36:00,SystemResetWarning,0827.1,5.00,000.00,021.9,021.4,000.0,030.3,023.8,018.1,0000.0,0006.75,0002.48,0001.66
2024-04-04 14:37:00,SystemResetWarning,0827.1,5.00,000.00,021.9,021.4,000.0,030.3,023.8,018.4,0000.0,0006.73,0002.47,0001.68
2024-04-04 14:38:00,SystemResetWarning,0827.1,4.99,000.00,021.9,021.4,000.0,030.3,023.8,018.0,0000.0,0006.69,0002.44,0001.68
2024-04-04 14:39:00,SystemResetWarning,0827.1,5.00,000.00,022.0,021.4,000.0,030.3,023.8,017.5,0000.0,0006.72,0002.44,0001.68
2024-04-04 14:40:00,SystemResetWarning,0827.0,5.00,000.00,022.0,021.4,000.0,030.3,023.8,016.8,0000.0,0006.66,0002.43,0001.67
2024-04-04 14:41:00,SystemResetWarning,0827.1,5.00,000.00,022.0,021.4,000.0,030.4,023.8,016.9,0000.0,0006.71,0002.46,0001.67
2024-04-04 14:42:00,SystemResetWarning,0827.1,5.00,000.00,022.0,021.4,000.0,030.4,023.8,017.5,0000.0,0006.50,0002.43,0001.68
2024-04-04 14:43:00,SystemResetWarning,0827.1,4.99,000.00,022.0,021.4,000.0,030.4,023.8,017.3,0000.0,0006.54,0002.44,0001.68
2024-04-04 14:44:00,SystemResetWarning,0827.1,5.01,000.00,022.0,021.4,000.0,030.4,023.8,016.8,0000.0,0005.61,0002.38,0001.67
2024-04-04 14:45:00,SystemResetWarning,0827.1,5.01,000.00,022.0,021.4,000.0,030.4,023.9,016.9,0000.0,0006.03,0002.34,0001.68
2024-04-04 14:46:00,SystemResetWarning,0827.1,5.00,000.00,022.0,021.4,000.0,030.4,023.9,018.1,0000.0,0005.59,0002.35,0001.70
2024-04-04 14:47:00,SystemResetWarning,0827.1,4.99,000.00,022.0,021.5,000.0,030.4,023.9,018.3,0000.0,0006.85,0002.41,0001.74
2024-04-04 14:48:00,SystemResetWarning,0827.1,5.00,000.00,022.1,021.5,000.0,030.4,023.9,018.9,0000.0,0007.45,0002.41,0001.75
2024-04-04 14:49:00,SystemResetWarning,0827.1,4.99,000.00,022.1,021.5,000.0,030.4,023.9,019.5,0000.0,0007.86,0002.43,0001.77
2024-04-04 14:50:00,SystemResetWarning,0827.1,5.01,000.00,022.1,021.5,000.0,030.5,023.9,018.5,0000.0,0007.82,0002.41,0001.78
2024-04-04 14:51:00,SystemResetWarning,0827.1,5.01,000.00,022.1,021.5,000.0,030.5,023.9,017.7,0000.0,0007.83,0002.41,0001.80
2024-04-04 14:52:00,SystemResetWarning,0827.1,5.00,000.00,022.1,021.5,000.0,030.5,023.9,017.8,0000.0,0007.77,0002.38,0001.81
2024-04-04 14:53:00,SystemResetWarning,0827.1,4.99,000.00,022.1,021.5,000.0,030.5,023.9,017.8,0000.0,0007.79,0002.39,0001.83
2024-04-04 14:54:00,SystemResetWarning,0827.2,5.00,000.00,022.1,021.5,000.0,030.5,023.9,017.5,0000.0,0008.29,0002.49,0001.85
2024-04-04 14:55:00,SystemResetWarning,0827.1,5.00,000.00,022.1,021.6,000.0,030.5,024.0,016.7,0000.0,0009.07,0002.53,0001.86
2024-04-04 14:56:00,SystemResetWarning,0827.1,4.99,000.00,022.1,021.6,000.0,030.5,024.0,016.2,0000.0,0008.40,0002.56,0001.87
2024-04-04 14:57:00,SystemResetWarning,0827.2,5.01,000.00,022.1,021.6,000.0,030.5,024.0,015.5,0000.0,0008.40,0002.55,0001.85
2024-04-04 14:58:00,SystemResetWarning,0827.1,5.00,000.00,022.2,021.6,000.0,030.5,024.0,015.8,0000.0,0007.48,0002.52,0001.83
2024-04-04 14:59:00,SystemResetWarning,0827.1,5.01,000.00,022.2,021.6,000.0,030.5,024.0,016.1,0000.0,0007.22,0002.54,0001.81
